CDT,Max TemperatureF,Mean TemperatureF,Min TemperatureF,Max Dew PointF,MeanDew PointF,Min DewpointF,Max Humidity, Mean Humidity, Min Humidity, Max Sea Level PressureIn, Mean Sea Level PressureIn, Min Sea Level PressureIn, Max VisibilityMiles, Mean VisibilityMiles, Min VisibilityMiles, Max Wind SpeedMPH, Mean Wind SpeedMPH, Max Gust SpeedMPH,PrecipitationIn, CloudCover, Events, WindDirDegrees
2012-5-1,88,76,66,67,65,63,87,66,48,30.07,30.00,29.94,10,10,10,12,6,20,0.00,0,,176
2012-5-2,84,76,69,72,68,64,94,83,67,30.03,29.98,29.93,10,9,0,25,7,36,0.65,6,Rain-Thunderstorm,132
2012-5-3,87,77,68,71,68,65,94,78,51,30.05,29.99,29.94,10,10,10,9,7,,0.00,4,,142
2012-5-4,89,80,71,72,69,67,94,77,49,30.07,30.00,29.94,10,10,7,10,6,,0.00,4,,163
2012-5-5,91,81,71,70,68,65,93,68,43,29.99,29.93,29.87,10,10,7,9,3,,0.00,1,,169
2012-5-6,90,79,69,71,67,65,90,68,46,29.97,29.91,29.86,10,10,9,9,3,,0.00,1,,166
2012-5-7,87,76,66,71,66,64,90,79,51,29.94,29.88,29.81,10,10,10,25,6,43,0.01,2,Rain-Thunderstorm,175
2012-5-8,82,72,63,69,65,62,97,78,54,29.95,29.89,29.83,10,9,4,12,2,17,0.29,3,Rain-Thunderstorm,46
2012-5-9,79,70,63,65,61,52,96,78,43,29.99,29.92,29.86,10,10,5,9,4,20,0.02,5,Rain,352
2012-5-10,81,68,55,58,52,47,93,60,32,29.98,29.94,29.90,10,10,9,8,1,,0.00,0,,14
2012-5-11,78,68,60,62,55,50,87,65,42,30.06,30.01,29.94,10,10,7,10,3,,0.04,3,Rain,110
2012-5-12,75,70,64,68,65,60,94,88,73,30.10,30.02,29.96,10,8,0,14,4,23,1.66,7,Fog-Rain,75
2012-5-13,73,68,64,66,64,62,97,87,73,30.08,30.03,29.98,10,7,1,9,4,,0.04,7,Rain,303
2012-5-14,82,70,59,62,59,54,100,78,39,30.05,30.01,29.94,10,5,0,10,1,,0.01,1,Fog,326
2012-5-15,84,71,60,62,59,56,90,69,41,30.03,29.99,29.96,10,10,7,7,2,,0.00,0,,333
2012-5-16,86,75,66,64,59,53,90,62,33,30.03,29.99,29.93,10,10,7,7,1,,0.00,0,,42
2012-5-17,88,74,62,63,60,57,90,63,36,30.00,29.96,29.91,10,9,5,8,2,,0.00,0,,325
2012-5-18,89,76,64,66,62,58,93,61,35,30.00,29.95,29.91,10,9,6,8,1,,0.00,1,,110
2012-5-19,89,78,68,66,62,60,81,60,40,30.05,30.00,29.95,10,10,7,9,3,,0.00,0,,119
2012-5-20,89,76,64,65,59,53,87,56,29,30.13,30.06,30.02,10,9,2,7,2,,0.00,0,,58
2012-5-21,89,77,66,66,63,61,93,76,43,30.11,30.03,29.95,10,10,3,16,3,25,0.19,2,Rain,303
2012-5-22,84,72,63,64,59,52,93,64,38,29.99,29.94,29.87,10,9,5,7,2,,0.00,0,,342
2012-5-23,89,74,59,63,59,55,90,60,39,29.88,29.83,29.76,10,10,10,7,2,,0.00,0,,132
2012-5-24,90,78,66,69,66,63,93,65,43,29.89,29.83,29.78,10,9,4,17,9,22,0.00,1,,170
2012-5-25,90,78,68,69,66,62,93,66,40,30.05,30.00,29.88,10,9,5,13,6,,0.00,0,,169
2012-5-26,93,80,66,70,65,59,94,65,34,30.12,30.07,30.02,10,9,2,6,2,,0.00,0,,126
2012-5-27,93,82,72,70,68,65,84,62,41,30.05,29.98,29.91,10,10,9,6,1,,0.00,0,,58
2012-5-28,93,83,73,72,70,67,85,65,46,29.94,29.89,29.84,10,9,7,9,2,,0.00,1,,264
2012-5-29,93,84,75,71,66,59,84,59,34,29.91,29.86,29.82,10,9,6,13,4,17,0.00,0,,273
2012-5-30,93,80,66,71,66,64,90,73,43,29.91,29.84,29.77,10,8,2,17,4,31,0.39,3,Rain-Thunderstorm,56
2012-5-31,89,76,66,72,67,61,93,84,59,29.90,29.81,29.69,10,7,0,24,6,33,1.72,5,Fog-Rain-Thunderstorm,186